Location: Gradaro
(45.0833°N, 10.8833°E)
Time: 14:33:04
(UTC+00:00)

Cosmos 2154 Rocket - Pass Details

Date: 29 November 2020
Orbit: 966 x 997 km, 82.9° (Epoch: 24 January)

Event Time Altitude Azimuth Distance (km) Brightness Sun altitude
Rises 05:07:06 0° 188° (S) 3,647 7.1 -14.7°
Reaches altitude 10° 05:09:35 10° 189° (S) 2,707 6.4 -14.3°
Maximum altitude 05:15:48 84° 277° (W) 988 4.0 -13.2°
Drops below altitude 10° 05:22:07 10° 7° (N) 2,746 6.2 -12.2°
Sets 05:24:39 0° 8° (N) 3,703 6.9 -11.7°
